• In Hungary
  • List of Countries
  • For 7 days
  • Water Temperature
  • Satellite Maps
  • Weather Map
  • News
  • Weather Widgets
  • user-avatar
    Login

    Hourly Weather Columbia

    Today, 12 December, Tuesday

    Time Temperature Precipitation Wind Pressure Humidity
    00:00 +3°C° 0 mm 4 mps 757 mmHg 76%
    01:00 +3°C° 0 mm 4 mps 756 mmHg 75%
    02:00 +3°C° 0 mm 4 mps 756 mmHg 75%
    03:00 +3°C° 0 mm 4 mps 755 mmHg 75%
    04:00 +3°C° 0 mm 4 mps 754 mmHg 75%
    05:00 +3°C° 0.1 mm 4 mps 753 mmHg 78%
    06:00 +3°C° 0.1 mm 4 mps 752 mmHg 80%
    07:00 +3°C° 0.1 mm 4 mps 752 mmHg 82%
    08:00 +3°C° 0.1 mm 4 mps 751 mmHg 80%
    09:00 +4°C° 0.1 mm 4 mps 751 mmHg 79%
    10:00 +5°C° 0.1 mm 4 mps 750 mmHg 77%
    11:00 +6°C° 0 mm 4 mps 750 mmHg 69%
    12:00 +7°C° 0 mm 5 mps 749 mmHg 60%
    13:00 +8°C° 0 mm 5 mps 749 mmHg 51%
    14:00 +5°C° 0 mm 6 mps 749 mmHg 51%
    15:00 +4°C° 0 mm 7 mps 749 mmHg 51%
    16:00 +3°C° 0 mm 7 mps 749 mmHg 51%
    17:00 -1°C° 0 mm 7 mps 750 mmHg 49%
    18:00 -4°C° 0 mm 8 mps 751 mmHg 48%
    19:00 -6°C° 0 mm 8 mps 752 mmHg 46%
    20:00 -6°C° 0 mm 7 mps 752 mmHg 45%
    21:00 -7°C° 0 mm 7 mps 753 mmHg 45%
    22:00 -8°C° 0 mm 7 mps 753 mmHg 44%
    23:00 -8°C° 0 mm 7 mps 753 mmHg 43%

    Tomorrow, 13 December, Wednesday

    Time Temperature Precipitation Wind Pressure Humidity
    00:00 -8°C° 0 mm 7 mps 753 mmHg 42%
    01:00 -8°C° 0 mm 7 mps 753 mmHg 41%
    02:00 -8°C° 0 mm 7 mps 753 mmHg 40%
    03:00 -8°C° 0 mm 7 mps 753 mmHg 40%
    04:00 -8°C° 0 mm 7 mps 753 mmHg 39%
    05:00 -8°C° 0 mm 7 mps 753 mmHg 39%
    06:00 -8°C° 0 mm 7 mps 754 mmHg 39%
    07:00 -9°C° 0 mm 7 mps 754 mmHg 39%
    08:00 -8°C° 0 mm 7 mps 755 mmHg 38%
    09:00 -7°C° 0 mm 7 mps 755 mmHg 36%
    10:00 -7°C° 0 mm 8 mps 756 mmHg 35%
    11:00 -6°C° 0 mm 7 mps 756 mmHg 33%
    12:00 -4°C° 0 mm 7 mps 755 mmHg 30%
    13:00 -3°C° 0 mm 7 mps 755 mmHg 28%
    14:00 -3°C° 0 mm 6 mps 755 mmHg 29%
    15:00 -2°C° 0 mm 5 mps 755 mmHg 30%
    16:00 -2°C° 0 mm 4 mps 755 mmHg 31%
    17:00 -1°C° 0 mm 3 mps 755 mmHg 33%
    18:00 -2°C° 0 mm 2 mps 755 mmHg 35%
    19:00 0°C° 0 mm 1 mps 755 mmHg 38%
    20:00 0°C° 0 mm 1 mps 755 mmHg 39%
    21:00 -1°C° 0 mm 2 mps 755 mmHg 41%
    22:00 -1°C° 0 mm 2 mps 755 mmHg 43%
    23:00 0°C° 0 mm 3 mps 754 mmHg 45%

    Day after tomorrow, 14 December, Thursday

    Time Temperature Precipitation Wind Pressure Humidity
    00:00 0°C° 0 mm 3 mps 753 mmHg 48%
    01:00 -1°C° 0 mm 4 mps 751 mmHg 50%
    02:00 0°C° 0 mm 4 mps 751 mmHg 53%
    03:00 0°C° 0 mm 4 mps 750 mmHg 55%
    04:00 0°C° 0 mm 5 mps 749 mmHg 58%
    05:00 0°C° 0 mm 5 mps 749 mmHg 60%
    06:00 +1°C° 0 mm 5 mps 749 mmHg 62%
    07:00 +1°C° 0 mm 5 mps 749 mmHg 64%
    08:00 +2°C° 0 mm 6 mps 750 mmHg 60%
    09:00 +2°C° 0 mm 6 mps 751 mmHg 57%
    10:00 +3°C° 0 mm 7 mps 752 mmHg 54%
    11:00 +3°C° 0 mm 7 mps 753 mmHg 51%
    12:00 +2°C° 0 mm 6 mps 754 mmHg 48%
    13:00 +1°C° 0 mm 6 mps 755 mmHg 46%
    14:00 +1°C° 0 mm 6 mps 756 mmHg 45%
    15:00 0°C° 0 mm 5 mps 757 mmHg 44%
    16:00 0°C° 0 mm 5 mps 758 mmHg 43%
    17:00 -1°C° 0 mm 4 mps 759 mmHg 46%
    18:00 -2°C° 0 mm 4 mps 760 mmHg 49%
    19:00 -4°C° 0 mm 4 mps 761 mmHg 52%
    20:00 -4°C° 0 mm 3 mps 762 mmHg 52%
    21:00 -4°C° 0 mm 3 mps 762 mmHg 52%
    22:00 -5°C° 0 mm 3 mps 763 mmHg 53%
    23:00 -5°C° 0 mm 3 mps 763 mmHg 52%

    15 December, Friday

    Time Temperature Precipitation Wind Pressure Humidity
    00:00 -4°C° 0 mm 2 mps 763 mmHg 52%
    01:00 -4°C° 0 mm 2 mps 763 mmHg 52%
    02:00 -2°C° 0 mm 1 mps 763 mmHg 52%
    03:00 -2°C° 0 mm 1 mps 763 mmHg 52%
    04:00 -2°C° 0 mm 1 mps 763 mmHg 52%
    05:00 -2°C° 0 mm 1 mps 763 mmHg 53%
    06:00 -2°C° 0 mm 1 mps 763 mmHg 53%
    07:00 -2°C° 0 mm 1 mps 763 mmHg 54%
    08:00 -3°C° 0 mm 2 mps 762 mmHg 52%
    09:00 -3°C° 0 mm 2 mps 762 mmHg 50%
    10:00 -2°C° 0 mm 2 mps 762 mmHg 48%
    11:00 -2°C° 0 mm 2 mps 761 mmHg 50%
    12:00 -1°C° 0 mm 2 mps 760 mmHg 51%
    13:00 -1°C° 0 mm 2 mps 759 mmHg 53%
    14:00 -1°C° 0.3 mm 2 mps 758 mmHg 63%
    15:00 -2°C° 0.3 mm 2 mps 757 mmHg 73%
    16:00 0°C° 0.3 mm 1 mps 757 mmHg 83%
    17:00 0°C° 0.3 mm 1 mps 757 mmHg 85%
    18:00 -1°C° 0.3 mm 1 mps 757 mmHg 88%
    19:00 -1°C° 0.3 mm 1 mps 757 mmHg 90%
    20:00 -1°C° 0.1 mm 1 mps 757 mmHg 91%
    21:00 -1°C° 0.1 mm 1 mps 756 mmHg 91%
    22:00 -1°C° 0.1 mm 1 mps 756 mmHg 92%
    23:00 -1°C° 0 mm 1 mps 756 mmHg 92%

    16 December, Saturday

    Time Temperature Precipitation Wind Pressure Humidity
    00:00 -1°C° 0 mm 1 mps 755 mmHg 92%
    01:00 -1°C° 0 mm 1 mps 755 mmHg 92%
    02:00 -3°C° 0 mm 2 mps 755 mmHg 91%
    03:00 -3°C° 0 mm 2 mps 756 mmHg 91%
    04:00 -3°C° 0 mm 2 mps 756 mmHg 90%
    05:00 -4°C° 0.1 mm 3 mps 757 mmHg 84%
    06:00 -4°C° 0.1 mm 4 mps 758 mmHg 78%
    07:00 -5°C° 0.1 mm 5 mps 759 mmHg 73%
    08:00 -4°C° 0 mm 6 mps 760 mmHg 66%
    09:00 -4°C° 0 mm 6 mps 761 mmHg 60%
    10:00 -3°C° 0 mm 7 mps 762 mmHg 54%
    11:00 -3°C° 0 mm 6 mps 763 mmHg 51%
    12:00 -2°C° 0 mm 6 mps 763 mmHg 49%
    13:00 0°C° 0 mm 5 mps 763 mmHg 47%
    14:00 0°C° 0 mm 4 mps 763 mmHg 48%
    15:00 +1°C° 0 mm 3 mps 764 mmHg 49%
    16:00 +1°C° 0 mm 2 mps 764 mmHg 51%
    17:00 +1°C° 0 mm 2 mps 764 mmHg 53%
    18:00 +1°C° 0 mm 1 mps 765 mmHg 56%
    19:00 0°C° 0 mm 1 mps 765 mmHg 58%
    20:00 -2°C° 0 mm 2 mps 766 mmHg 60%
    21:00 -2°C° 0 mm 2 mps 766 mmHg 61%
    22:00 -2°C° 0 mm 2 mps 766 mmHg 62%
    23:00 -2°C° 0 mm 3 mps 766 mmHg 64%

    17 December, Sunday

    Time Temperature Precipitation Wind Pressure Humidity
    00:00 -2°C° 0 mm 3 mps 765 mmHg 66%
    01:00 -2°C° 0 mm 3 mps 764 mmHg 68%
    02:00 -1°C° 0 mm 3 mps 764 mmHg 69%
    03:00 -1°C° 0 mm 3 mps 764 mmHg 70%
    04:00 -2°C° 0 mm 4 mps 763 mmHg 71%
    05:00 -2°C° 0 mm 4 mps 763 mmHg 73%
    06:00 -2°C° 0 mm 4 mps 763 mmHg 74%
    07:00 -2°C° 0 mm 4 mps 763 mmHg 76%
    08:00 -1°C° 0 mm 4 mps 763 mmHg 73%
    09:00 0°C° 0 mm 4 mps 763 mmHg 70%
    10:00 +3°C° 0 mm 4 mps 763 mmHg 67%
    11:00 +3°C° 0 mm 4 mps 762 mmHg 66%
    12:00 +4°C° 0 mm 4 mps 762 mmHg 65%
    13:00 +5°C° 0 mm 4 mps 761 mmHg 64%
    14:00 +4°C° 0.2 mm 3 mps 761 mmHg 67%
    15:00 +4°C° 0.2 mm 3 mps 761 mmHg 70%
    16:00 +4°C° 0.2 mm 3 mps 761 mmHg 74%
    17:00 +4°C° 0 mm 3 mps 761 mmHg 74%
    18:00 +4°C° 0 mm 3 mps 761 mmHg 75%
    19:00 +4°C° 0 mm 3 mps 761 mmHg 76%
    20:00 +4°C° 0 mm 3 mps 761 mmHg 77%
    21:00 +4°C° 0 mm 3 mps 761 mmHg 78%
    22:00 +4°C° 0 mm 3 mps 761 mmHg 79%
    23:00 +4°C° 0 mm 3 mps 761 mmHg 81%
    Show more